Flag for Zimbabwe Weather past 2 weeks in Harare, Zimbabwe

Now
57 °F

Clear.


Feels Like: 56 °F
Forecast: 50 / 76 °F
Wind: 7 mph from Northeast

Location: Harare Kutsaga Airport

Current Time: Jun 2, 2015 at 9:38:57 PM

Latest Report: Jun 2, 2015 at 9:00 PM


Visibility: 10 mi

Pressure: 30.24 "Hg

Humidity: 72%

Dew point: 48 °F

Location of HarareLocation

Historic Weather in Harare — Graph

°F

Harare temperature yesterday

Maximum temperature yesterday: 72 °F (at 1:00 PM)
Minimum temperature yesterday: 50 °F (at 5:00 AM)
Average temperature yesterday: 61 °F

Past Weeks' High & Low Weather Summary

 TemperatureHumidityPressure
High79 °F (May 20, 1:00 PM)100% (May 19, 12:00 AM)30.42 "Hg (May 19, 12:00 AM)
Low45 °F (May 20, 6:00 AM)16% (May 20, 1:00 PM)30.15 "Hg (May 31, 2:00 PM)
Average61 °F63%30.29 "Hg
* Reported May 18 8:00 PM — Jun 2 8:00 PM, Harare, Weather by CustomWeather, © 2015

Note: Actual official high and low records may vary slightly from our data, if they occured in-between our weather recording intervals... More about our weather records

Advertising

Harare weather history for previous 24 hours

 ConditionsComfort  
Time TempWeatherWind HumidityBarometerVisibility
8:00 PM
Tue, Jun 2
57 °FPassing clouds.7 mph72%30.24 "HgN/A
7:00 PM61 °FClear.7 mph63%30.21 "Hg10 mi
5:00 PM68 °FSunny.8 mph49%30.21 "Hg10 mi
3:00 PM72 °FPassing clouds.8 mph44%30.21 "HgN/A
2:00 PM72 °FPassing clouds.8 mph47%30.21 "HgN/A
1:00 PM70 °FScattered clouds.7 mph50%30.24 "HgN/A
12:00 PM70 °FScattered clouds.8 mph50%30.27 "HgN/A
11:00 AM70 °FScattered clouds.12 mph53%30.30 "HgN/A
10:00 AM66 °FPassing clouds.13 mph64%30.33 "HgN/A
9:00 AM64 °FPassing clouds.12 mph73%30.30 "HgN/A
8:00 AM59 °FPassing clouds.8 mph100%30.27 "HgN/A
7:00 AM54 °FSunny.7 mph100%30.24 "Hg10 mi
3:00 AM54 °FClear.8 mph100%30.21 "Hg10 mi
2:00 AM55 °FClear.7 mph100%30.21 "Hg10 mi
11:00 PM
Mon, Jun 1
55 °FPassing clouds.7 mph88%30.24 "HgN/A
10:00 PM55 °FPassing clouds.7 mph88%30.24 "HgN/A
9:00 PM55 °FPassing clouds.5 mph82%30.24 "HgN/A
Weather by CustomWeather, © 2015

See weather overviewHow to use our weather pages